Location: Bennemühlen
(52.5740°N, 9.7135°E)
Time: 17:09:06
(UTC+00:00)

SR - Pass Details

Date: 18 February 2026
Orbit: 572 x 848 km, 66.7° (Epoch: 8 March)

Event Time Altitude Azimuth Distance (km) Brightness Sun altitude
Exits shadow 04:37:16 29° 223° (SW) 1,098 ? -18.0°
Maximum altitude 04:39:26 84° 310° (NW) 614 ? -17.7°
Drops below altitude 10° 04:43:58 10° 39° (NE) 2,026 ? -17.0°
Sets 04:46:21 0° 40° (NE) 2,981 ? -16.6°
